Regional Weather Roundup
Issued by NWS

Home | Current Version | Previous Version | Text Only | Print | Product List | Glossary On
Versions: 1 2 3 4 5 6 7 8 9 10 11 12 13 14 15 16 17 18 19 20 21 22 23 24 25 26 27
000
ASUS45 KSLC 232010
RWRUT

UTAH REGIONAL WEATHER ROUNDUP
NATIONAL WEATHER SERVICE SALT LAKE CITY UT
200 PM MDT THU OCT 23 2014

UTZ001>011-023>025-232100-

NORTHERN UTAH

CITY           SKY/WX    TMP DP  RH WIND       PRES   REMARKS
BRIGHAM CITY   MOSUNNY   65  27  23 CALM      30.12F
HILL AFB       MOSUNNY   66  33  28 VRB1      30.12F
LOGAN          SUNNY     62  32  32 N6        30.12F
OGDEN          MOSUNNY   67  34  29 VRB5      30.11F
PROVO AIRPORT  MOSUNNY   70  36  28 CALM      30.12F
SALT LAKE CITY PTSUNNY   68  37  32 N7        30.08F
VERNAL         SUNNY     59  38  45 VRB3      30.20F
WENDOVER       SUNNY     59  32  36 E7        30.10F
HEBER CITY     SUNNY     72  27  18 SW10      30.13F
WEST JORDAN    SUNNY     72  43  35 SE14G21   30.10F

$$

UTZ012>022-026-027-232100-

SOUTHERN/CENTRAL UTAH

CITY           SKY/WX    TMP DP  RH WIND       PRES   REMARKS
BLANDING       SUNNY     67  33  27 SW5       30.34F
BRYCE CANYON   SUNNY     61  28  28 SE14      30.33F
CEDAR CITY     MOSUNNY   71  24  17 SW17G24   30.19F
DELTA          SUNNY     71  29  21 S8        30.13F
HANKSVILLE       N/A     70  34  26 SE5       30.20F
MILFORD        SUNNY     73  28  18 SW22      30.15F
MOAB/CYNLANDS  SUNNY     72  35  25 VRB3      30.17F
PRICE          SUNNY     64  30  27 SE8       30.24F
ST GEORGE      CLEAR     70  34  26 CALM      30.13F

$$

REGIONAL REPORTS     COLORADO/ARIZONA

CITY           SKY/WX    TMP DP  RH WIND       PRES   REMARKS
CRAIG, CO      SUNNY     68  35  29 W12       30.21F
GRAND JUNCTION SUNNY     68  38  33 W5        30.20F
RIFLE          SUNNY     63  36  36 CALM      30.22F
MONTROSE       SUNNY     69  36  29 NW6       30.24F
CORTEZ         SUNNY     69  35  28 CALM      30.27F
PAGE, AZ       PTSUNNY   72  30  21 N6        30.19F
GRAND CANYON   MOSUNNY   69  31  24 S9        30.31F
KINGMAN        SUNNY     81  36  19 SW6       30.12F
FLAGSTAFF      SUNNY     69  32  25 VRB6      30.32F

$$

REGIONAL REPORTS    NEVADA/IDAHO/WYOMING

CITY           SKY/WX    TMP DP  RH WIND       PRES   REMARKS
LAS VEGAS, NV  MOSUNNY   81  33  17 VRB3      30.01F
ELY            SUNNY     71  20  14 SW17G24   30.17F
ELKO           SUNNY     71  21  15 W10G21    30.07F
POCATELLO, ID  SUNNY     64  29  26 SW16      30.11F
BURLEY         PTSUNNY   62  35  36 VRB3      30.08F
EVANSTON, WY   SUNNY     66  24  20 SW21G29   30.19F
ROCK SPRINGS   MOSUNNY   63  25  23 W15G22    30.17F
KEMMERER       MOSUNNY   61  25  25 W15       30.20F

$$



USA.gov is the U.S. government's official web portal to all federal, state and local government web resources and services.